Weather in Roshchino

Russia / Primorsky Krai     45°54′01″N   134°53′12″E
temp.,
°C
wind,
m/s
gust,
m/s
humid.,
%
clouds,
%
prec.,
mm/h
press.,
hPa
HPBL,
m
12 april, mon
mon1201:00+7sse2369100 0.0 102157
04:00+5sse2275100 0.0 102120
07:00+6se2272100 0.0 102149
10:00+13ssw374993 0.0 1019921
13:00+17sw61035100 0.0 10161822
16:00+18sw61237100 0.0 10142568
19:00+14ssw4144499 0.0 10121592
22:00+11ssw4124696 0.0 10121134
13 april, tue
tue1301:00+9s2752100 0.0 1010327
04:00+9ssw2648100 0.0 1007282
07:00+5sse3878100 0.9 1005727
10:00+5se2790100 4.4 1002412
13:00−2wnw5993100 3.5 1005682
16:00−2wnw61084100 5.9 10071083
19:000wnw5105361 0.1 10061494
22:00−3wnw4116396 0.1 1008518
14 april, wed
wed1401:00−5w411700 0.0 1009682
04:00−5w511685 0.0 1009945
07:00−5wsw410725 0.0 1011936
10:00−1w61147100 0.1 10112477
13:00+1w71147100 0.3 10102353
16:00+2wnw61346100 0.9 10102918
19:00+1wnw3855100 0.4 1011602
22:00−4s218880 0.4 101327
15 april, thu
thu1501:00−4sse1196100 0.0 101412
04:00−5se109846 0.0 101511
07:00−5ssw12925 0.0 101744
10:00+3w24440 0.0 1017976
13:00+7w23353 0.0 10161292
16:00+9s23355 0.0 10141216
19:00+7ese225295 0.0 101314
22:00+3ese236388 0.0 101344
16 april, fri
fri1601:00+2ese2667100 0.0 1012108
04:00+2se257192 0.0 1012118
07:00+4se51361100 0.0 1011434
10:00+9sse71359100 0.0 10091212
13:00+9sse71465100 0.4 10081764
16:00+5s41181100 3.7 1010707
19:00+6se23730 0.0 101164
22:00+2se229097 0.0 101532